Terminal Aerodrome Forecast
Issued by NWS

Home | Current Version | Previous Version | Text Only | Print | Product List | Glossary On
Versions: 1 2 3 4 5 6 7 8 9 10 11 12 13 14 15 16 17
789
FTPA31 PHFO 012320
TAFHNY
TAF
PHNY 012320Z 0200/0224 04018G26KT P6SM SCT035
     FM020600 05011G19KT P6SM SCT035
     FM022000 04020G28KT P6SM SCT035=

USA.gov is the U.S. government's official web portal to all federal, state and local government web resources and services.